Location: Bakov nad Jizerou
(50.4784°N, 14.9394°E)
Time: 15:33:06
(UTC+00:00)

Thor Agena Rocket - Pass Details

Date: 16 June 2021
Orbit: 759 x 808 km, 99.0° (Epoch: 02 August)

Event Time Altitude Azimuth Distance (km) Brightness Sun altitude
Rises 23:25:34 0° 13° (NNE) 3,332 8.6 -15.9°
Reaches altitude 10° 23:27:55 10° 12° (NNE) 2,393 7.4 -15.9°
Maximum altitude 23:33:11 71° 289° (WNW) 846 3.7 -15.8°
Enters shadow 23:36:29 23° 210° (SSW) 1,640 4.7 -15.7°
